SCP
0 0 0 0 0 0 0 1 1 0 0 0 0 2 1 -1 -1 -0 0 0 2 2
0 0 0 0 0 0 0 0 0 1 0 0 0 1 0 -0 0 0 0 2 2 2
0 0 0 0 0 0 0 0 0 0 1 1 1 1 0 0 0 1 1 0 1 2
0 0 0 0 0 0 0 0 0 0 0 0 1 2 1 1 1 2 2 2 2 2
0 0 0 0 0 0 0 0 0 0 0 0 1 2 3 3 3 3 3 3 3 3
0 0 0 0 0 0 0 0 0 0 0 0 1 1 1 2 2 2 3 3 3 2
0 0 0 0 0 0 0 0 0 0 0 0 0 1 1 1 1 1 2 3 3 2
0 0 0 0 0 0 0 0 0 0 0 0 0 0 1 1 1 3 3 2 2 2
0 0 0 0 0 0 0 0 0 0 0 0 0 0 0 1 2 3 2 2 2 2
0 0 0 0 0 0 0 0 0 0 0 0 0 0 0 0 1 3 2 2 2 1
0 0 0 0 0 0 0 0 0 0 0 0 0 0 0 0 1 2 2 1 1 1
0 0 0 0 0 0 0 0 0 0 0 0 0 0 0 0 0 2 2 1 1 1
0 0 0 0 0 0 0 0 -0 0 0 0 0 0 0 0 1 2 1 0 0 1
0 0 0 0 0 0 0 -0 -0 -0 -0 0 0 1 0 0 1 1 1 0 0 0
Wind_Speed_500mb
30 33 34 37 42 48 44 47 59 62 69 76 93 107 86 94 113 99 91 87 93 85
26 31 31 34 41 43 42 42 37 35 45 55 43 38 39 117 132 104 94 94 86 77
38 39 31 32 40 44 46 50 52 54 51 38 44 53 68 94 88 72 75 65 76 70
33 31 34 41 42 46 45 45 52 56 58 63 63 58 65 74 76 78 73 72 74 77
38 44 54 50 48 49 51 53 50 54 63 65 61 58 66 67 72 78 74 74 73 67
41 36 38 56 53 58 64 63 58 56 60 67 64 61 65 69 72 79 78 77 75 62
64 61 55 50 58 61 61 61 65 65 65 61 66 65 67 66 68 77 69 70 67 62
53 64 70 72 72 74 72 73 76 74 72 66 65 69 68 69 61 64 66 65 64 59
68 72 84 92 92 84 76 75 73 69 70 71 67 64 63 68 67 69 62 59 61 54
74 75 73 74 54 80 78 77 69 71 73 76 70 65 66 62 74 74 59 52 54 52
74 69 65 72 78 58 63 76 73 73 75 70 71 63 65 62 64 67 58 53 49 47
85 84 83 69 73 64 59 70 67 68 69 70 66 66 63 60 60 65 58 50 52 44
80 77 72 75 85 75 51 55 65 68 58 60 68 65 63 57 60 63 57 46 45 42
80 82 84 77 66 76 82 72 65 75 75 58 62 63 60 58 59 63 54 49 48 41
Wind_Direction_500mb
267 259 263 261 256 252 249 247 254 250 253 258 258 255 264 266 271 269 267 266 258 266
273 275 275 266 264 266 260 253 247 256 255 248 246 261 246 232 249 260 261 263 259 258
256 265 269 271 274 272 264 259 252 253 258 264 263 255 230 236 246 256 259 252 255 262
264 257 264 272 272 277 282 276 263 254 255 255 250 253 252 249 252 249 258 260 263 264
267 268 275 277 269 270 278 281 279 272 260 254 257 252 249 248 249 253 258 265 266 257
267 283 285 269 264 268 276 279 276 277 272 262 256 255 254 253 254 257 256 258 254 254
260 265 267 273 280 268 265 270 273 273 274 274 262 254 256 256 257 255 255 246 248 253
253 254 259 270 271 274 265 266 271 274 270 272 274 254 256 257 258 257 247 245 244 243
270 268 268 282 268 260 259 261 269 270 269 266 270 265 256 261 257 254 245 239 240 233
281 282 279 259 266 250 252 258 263 268 269 267 263 266 252 255 252 246 240 235 224 222
274 269 265 267 258 256 254 254 259 268 271 267 263 264 255 254 249 240 234 227 223 223
269 266 263 260 260 252 252 262 260 267 269 264 266 263 249 251 245 233 226 220 216 220
258 261 256 253 260 249 246 262 260 260 263 266 261 260 245 249 237 224 217 209 206 215
253 256 254 250 251 233 253 257 264 268 262 263 259 255 242 242 228 214 204 203 206 204
Wind_Speed_850mb
30 33 34 37 42 48 44 47 59 62 69 76 93 107 86 94 113 99 91 87 93 85
26 31 31 34 41 43 42 42 37 35 45 55 43 38 39 117 132 104 94 94 86 77
38 39 31 32 40 44 46 50 52 54 51 38 44 53 68 94 88 72 75 65 76 70
33 31 34 41 42 46 45 45 52 56 58 63 63 58 65 74 76 78 73 72 74 77
38 44 54 50 48 49 51 53 50 54 63 65 61 58 66 67 72 78 74 74 73 67
41 36 38 56 53 58 64 63 58 56 60 67 64 61 65 69 72 79 78 77 75 62
64 61 55 50 58 61 61 61 65 65 65 61 66 65 67 66 68 77 69 70 67 62
53 64 70 72 72 74 72 73 76 74 72 66 65 69 68 69 61 64 66 65 64 59
68 72 84 92 92 84 76 75 73 69 70 71 67 64 63 68 67 69 62 59 61 54
74 75 73 74 54 80 78 77 69 71 73 76 70 65 66 62 74 74 59 52 54 52
74 69 65 72 78 58 63 76 73 73 75 70 71 63 65 62 64 67 58 53 49 47
85 84 83 69 73 64 59 70 67 68 69 70 66 66 63 60 60 65 58 50 52 44
80 77 72 75 85 75 51 55 65 68 58 60 68 65 63 57 60 63 57 46 45 42
80 82 84 77 66 76 82 72 65 75 75 58 62 63 60 58 59 63 54 49 48 41
Wind_Direction_850mb
267 259 263 261 256 252 249 247 254 250 253 258 258 255 264 266 271 269 267 266 258 266
273 275 275 266 264 266 260 253 247 256 255 248 246 261 246 232 249 260 261 263 259 258
256 265 269 271 274 272 264 259 252 253 258 264 263 255 230 236 246 256 259 252 255 262
264 257 264 272 272 277 282 276 263 254 255 255 250 253 252 249 252 249 258 260 263 264
267 268 275 277 269 270 278 281 279 272 260 254 257 252 249 248 249 253 258 265 266 257
267 283 285 269 264 268 276 279 276 277 272 262 256 255 254 253 254 257 256 258 254 254
260 265 267 273 280 268 265 270 273 273 274 274 262 254 256 256 257 255 255 246 248 253
253 254 259 270 271 274 265 266 271 274 270 272 274 254 256 257 258 257 247 245 244 243
270 268 268 282 268 260 259 261 269 270 269 266 270 265 256 261 257 254 245 239 240 233
281 282 279 259 266 250 252 258 263 268 269 267 263 266 252 255 252 246 240 235 224 222
274 269 265 267 258 256 254 254 259 268 271 267 263 264 255 254 249 240 234 227 223 223
269 266 263 260 260 252 252 262 260 267 269 264 266 263 249 251 245 233 226 220 216 220
258 261 256 253 260 249 246 262 260 260 263 266 261 260 245 249 237 224 217 209 206 215
253 256 254 250 251 233 253 257 264 268 262 263 259 255 242 242 228 214 204 203 206 204